This demonstration page uses our WeatherBlox Daily Observations layout. Learn more.

Left ArrowRight Arrow

36.17497, -115.13722

Hourly Observations for June 21, 2019

Temp ( °F °C ) Dew Point ( °F °C ) Humidity (%) Winds ( mph kmh ) Pressure ( in mb ) Visibility ( mi km ) Precip ( " mm )
12:53 am 00:53 Clear 83 28.3 39 3.9 21 21 E 6 9 29.53 1000 10 16 0.00 0.00
1:53 am 01:53 Clear 81 27.2 39 3.9 22 22 NNW 7 11 29.54 1000 10 16 0.00 0.00
2:53 am 02:53 Clear 80 26.7 40 4.4 24 24 NNW 3 6 29.56 1001 10 16 0.00 0.00
3:53 am 03:53 Clear 78 25.6 39 3.9 25 25 NW 3 6 29.58 1002 10 16 0.00 0.00
4:53 am 04:53 Clear 80 26.7 40 4.4 24 24 NE 3 6 29.60 1003 10 16 0.00 0.00
5:53 am 05:53 Sunny 79 26.1 40 4.4 25 25 E 14 22 29.63 1003 10 16 0.00 0.00
6:53 am 06:53 Sunny 80 26.7 37 2.8 21 21 S 7 11 29.66 1004 10 16 0.00 0.00
7:53 am 07:53 Sunny 83 28.3 30 -1.1 15 15 N 9 15 29.69 1005 10 16 0.00 0.00
8:53 am 08:53 Sunny 85 29.4 29 -1.7 13 13 N 16 26 29.69 1006 10 16 0.00 0.00
9:53 am 09:53 Sunny 87 30.6 29 -1.7 12 12 NNW 15 24 29.70 1006 10 16 0.00 0.00
10:53 am 10:53 Sunny 87 30.6 28 -2.2 12 12 undefined N/A 29.71 1006 10 16 0.00 0.00
11:53 am 11:53 Sunny 88 31.1 31 -0.6 13 13 VRB 7 11 29.70 1006 10 16 0.00 0.00
12:53 pm 12:53 Sunny 88 31.1 31 -0.6 13 13 VRB 3 6 29.69 1006 10 16 0.00 0.00
1:53 pm 13:53 Sunny 91 32.8 32 0 12 12 ENE 3 6 29.67 1005 10 16 0.00 0.00
2:53 pm 14:53 Sunny 93 33.9 33 0.6 12 12 E 6 9 29.65 1004 10 16 0.00 0.00
3:53 pm 15:53 Sunny 92 33.3 33 0.6 12 12 ENE 6 9 29.62 1003 10 16 0.00 0.00
4:53 pm 16:53 Sunny 93 33.9 33 0.6 12 12 NE 6 9 29.61 1003 10 16 0.00 0.00
5:53 pm 17:53 Sunny 94 34.4 30 -1.1 10 10 N 8 13 29.61 1003 10 16 0.00 0.00
6:53 pm 18:53 Sunny 93 33.9 24 -4.4 8 8 N 16 26 29.61 1003 10 16 0.00 0.00
7:53 pm 19:53 Sunny 91 32.8 22 -5.6 8 8 N 14 22 29.62 1003 10 16 0.00 0.00
8:53 pm 20:53 Clear 89 31.7 23 -5 9 9 NW 10 17 29.63 1003 10 16 0.00 0.00
9:53 pm 21:53 Clear 88 31.1 20 -6.7 8 8 NNW 22 35 29.65 1004 10 16 0.00 0.00
10:53 pm 22:53 Clear 85 29.4 16 -8.9 7 7 NNW 21 33 29.69 1005 10 16 0.00 0.00
11:53 pm 23:53 Clear 84 28.9 13 -10.6 7 7 NNW 20 31 29.70 1006 10 16 0.00 0.00

Powered by AerisWeather